Time,TemperatureF,DewpointF,PressureIn,WindDirection,WindDirectionDegrees,WindSpeedMPH,WindSpeedGustMPH,Humidity,HourlyPrecipIn,Conditions,Clouds,dailyrainin,SoftwareType,DateUTC
2013-03-18 00:03:00,32.4,23.7,29.86,East,90,2.2,3.5,70,0.00,OVC,FEW,0.00,WeatherDisplay:10.37,2013-03-18 05:03:00,
2013-03-18 00:09:00,32.4,23.7,29.86,NE,45,1.6,6.9,70,0.00,OVC,FEW,0.00,WeatherDisplay:10.37,2013-03-18 05:09:00,
2013-03-18 00:14:00,32.5,23.5,29.85,SSE,158,5.4,10.4,69,0.00,OVC,FEW,0.00,WeatherDisplay:10.37,2013-03-18 05:14:00,
2013-03-18 00:20:00,32.5,23.5,29.85,East,90,3.8,8.1,69,0.00,OVC,FEW,0.00,WeatherDisplay:10.37,2013-03-18 05:20:00,
2013-03-18 00:25:00,32.5,23.1,29.84,East,90,2.2,8.1,68,0.00,OVC,FEW,0.00,WeatherDisplay:10.37,2013-03-18 05:25:00,
2013-03-18 00:31:00,32.4,23.0,29.84,East,90,2.2,4.6,68,0.00,OVC,FEW,0.00,WeatherDisplay:10.37,2013-03-18 05:31:00,
2013-03-18 00:37:00,32.5,23.1,29.84,SSE,158,3.8,6.9,68,0.00,OVC,FEW,0.00,WeatherDisplay:10.37,2013-03-18 05:37:00,
2013-03-18 00:42:00,32.4,23.0,29.84,SE,135,2.2,6.9,68,0.00,OVC,FEW,0.00,WeatherDisplay:10.37,2013-03-18 05:42:00,
2013-03-18 00:52:00,32.5,23.5,29.83,East,90,2.2,10.4,69,0.00,OVC,FEW,0.00,WeatherDisplay:10.37,2013-03-18 05:52:00,
2013-03-18 00:57:00,32.4,23.3,29.82,SE,135,3.1,8.1,69,0.00,OVC,FEW,0.00,WeatherDisplay:10.37,2013-03-18 05:57:00,
2013-03-18 01:03:00,32.4,23.3,29.82,East,90,3.8,8.1,69,0.00,OVC,FEW,0.00,WeatherDisplay:10.37,2013-03-18 06:03:00,
2013-03-18 01:09:00,32.4,23.7,29.82,East,90,3.8,9.2,70,0.00,OVC,FEW,0.00,WeatherDisplay:10.37,2013-03-18 06:09:00,
2013-03-18 01:14:00,32.4,23.7,29.81,East,90,3.1,6.9,70,0.00,OVC,FEW,0.00,WeatherDisplay:10.37,2013-03-18 06:14:00,
2013-03-18 01:20:00,32.2,23.8,29.80,South,180,4.5,6.9,71,0.00,OVC,FEW,0.00,WeatherDisplay:10.37,2013-03-18 06:20:00,
2013-03-18 01:25:00,32.2,23.8,29.80,SE,135,1.6,6.9,71,0.00,OVC,FEW,0.00,WeatherDisplay:10.37,2013-03-18 06:25:00,
2013-03-18 01:31:00,32.2,23.8,29.80,SE,135,4.5,8.1,71,0.00,OVC,FEW,0.00,WeatherDisplay:10.37,2013-03-18 06:31:00,
2013-03-18 01:37:00,32.2,24.2,29.81,East,90,1.6,5.8,72,0.00,OVC,FEW,0.00,WeatherDisplay:10.37,2013-03-18 06:37:00,
2013-03-18 01:42:00,32.2,24.2,29.81,East,90,1.6,3.5,72,0.00,OVC,FEW,0.00,WeatherDisplay:10.37,2013-03-18 06:42:00,
2013-03-18 01:48:00,32.2,24.5,29.81,East,90,2.2,6.9,73,0.00,OVC,FEW,0.00,WeatherDisplay:10.37,2013-03-18 06:48:00,
2013-03-18 01:53:00,32.2,24.5,29.81,NE,45,3.8,6.9,73,0.00,OVC,FEW,0.00,WeatherDisplay:10.37,2013-03-18 06:53:00,
2013-03-18 01:59:00,32.2,24.8,29.80,NE,45,3.1,5.8,74,0.00,OVC,FEW,0.00,WeatherDisplay:10.37,2013-03-18 06:59:00,
2013-03-18 02:05:00,32.0,25.0,29.79,SE,135,2.2,4.6,75,0.00,OVC,FEW,0.00,WeatherDisplay:10.37,2013-03-18 07:05:00,
2013-03-18 02:10:00,32.0,25.3,29.80,SE,135,1.6,4.6,76,0.00,OVC,FEW,0.00,WeatherDisplay:10.37,2013-03-18 07:10:00,
2013-03-18 02:17:00,32.0,25.6,29.79,SE,135,4.5,8.3,77,0.00,OVC,FEW,0.00,WeatherDisplay:10.37,2013-03-18 07:17:00,
2013-03-18 02:22:00,32.0,25.6,29.79,SE,135,0.7,5.8,77,0.00,OVC,FEW,0.00,WeatherDisplay:10.37,2013-03-18 07:22:00,
2013-03-18 02:28:00,31.8,25.7,29.78,SE,135,3.1,5.8,78,0.00,OVC,FEW,0.00,WeatherDisplay:10.37,2013-03-18 07:28:00,
2013-03-18 02:33:00,31.8,25.7,29.79,East,90,1.6,9.2,78,0.00,OVC,FEW,0.00,WeatherDisplay:10.37,2013-03-18 07:33:00,
2013-03-18 02:39:00,32.0,25.9,29.78,East,90,3.1,6.9,78,0.00,OVC,FEW,0.00,WeatherDisplay:10.37,2013-03-18 07:39:00,
2013-03-18 02:45:00,32.0,25.9,29.78,SE,135,2.2,6.9,78,0.00,OVC,FEW,0.00,WeatherDisplay:10.37,2013-03-18 07:45:00,
2013-03-18 02:50:00,32.0,26.2,29.78,East,90,2.2,5.8,79,0.00,OVC,FEW,0.00,WeatherDisplay:10.37,2013-03-18 07:50:00,
2013-03-18 02:57:00,32.0,25.9,29.77,NE,45,3.1,6.0,78,0.00,OVC,FEW,0.00,WeatherDisplay:10.37,2013-03-18 07:57:00,
2013-03-18 03:02:00,32.0,25.9,29.77,East,90,3.8,8.1,78,0.00,OVC,FEW,0.00,WeatherDisplay:10.37,2013-03-18 08:02:00,
2013-03-18 03:08:00,32.0,25.9,29.77,East,90,3.1,6.0,78,0.00,OVC,FEW,0.00,WeatherDisplay:10.37,2013-03-18 08:08:00,
2013-03-18 03:13:00,32.0,26.2,29.77,East,90,1.6,6.9,79,0.00,OVC,FEW,0.00,WeatherDisplay:10.37,2013-03-18 08:13:00,
2013-03-18 03:19:00,32.0,26.2,29.77,SE,135,1.6,3.5,79,0.00,OVC,FEW,0.00,WeatherDisplay:10.37,2013-03-18 08:19:00,
2013-03-18 03:25:00,32.0,26.2,29.77,NE,45,2.2,5.8,79,0.00,OVC,FEW,0.00,WeatherDisplay:10.37,2013-03-18 08:25:00,
2013-03-18 03:30:00,31.8,26.0,29.76,SE,135,0.7,5.8,79,0.00,OVC,FEW,0.00,WeatherDisplay:10.37,2013-03-18 08:30:00,
2013-03-18 03:37:00,32.0,26.2,29.76,SE,135,2.2,6.0,79,0.00,OVC,FEW,0.00,WeatherDisplay:10.37,2013-03-18 08:37:00,
2013-03-18 03:42:00,32.0,26.2,29.76,SE,135,2.2,5.8,79,0.00,OVC,FEW,0.00,WeatherDisplay:10.37,2013-03-18 08:42:00,
2013-03-18 03:48:00,32.0,26.2,29.75,East,90,0.7,5.8,79,0.00,OVC,FEW,0.00,WeatherDisplay:10.37,2013-03-18 08:48:00,
2013-03-18 03:53:00,31.8,26.0,29.74,East,90,3.8,10.4,79,0.00,OVC,FEW,0.00,WeatherDisplay:10.37,2013-03-18 08:53:00,
2013-03-18 03:59:00,31.6,26.2,29.73,NE,45,1.6,4.6,80,0.00,OVC,FEW,0.00,WeatherDisplay:10.37,2013-03-18 08:59:00,
2013-03-18 04:05:00,31.6,26.2,29.73,East,90,2.2,5.8,80,0.00,OVC,FEW,0.00,WeatherDisplay:10.37,2013-03-18 09:05:00,
2013-03-18 04:10:00,31.6,26.5,29.73,East,90,3.8,6.9,81,0.00,OVC,FEW,0.00,WeatherDisplay:10.37,2013-03-18 09:10:00,
2013-03-18 04:16:00,31.6,26.5,29.72,East,90,3.1,6.0,81,0.00,OVC,FEW,0.00,WeatherDisplay:10.37,2013-03-18 09:16:00,
2013-03-18 04:21:00,31.5,26.6,29.72,East,90,2.2,6.9,82,0.00,OVC,FEW,0.00,WeatherDisplay:10.37,2013-03-18 09:21:00,
2013-03-18 04:27:00,31.5,26.6,29.72,East,90,3.8,9.2,82,0.00,OVC,FEW,0.00,WeatherDisplay:10.37,2013-03-18 09:27:00,
2013-03-18 04:33:00,31.3,26.7,29.72,East,90,1.6,5.8,83,0.00,OVC,FEW,0.00,WeatherDisplay:10.37,2013-03-18 09:33:00,
2013-03-18 04:38:00,31.3,26.7,29.72,East,90,1.6,3.5,83,0.00,OVC,FEW,0.00,WeatherDisplay:10.37,2013-03-18 09:38:00,
2013-03-18 04:44:00,31.1,26.8,29.72,NE,45,0.7,5.8,84,0.00,OVC,FEW,0.00,WeatherDisplay:10.37,2013-03-18 09:44:00,
2013-03-18 04:49:00,31.1,26.8,29.72,ESE,112,0.7,3.5,84,0.00,OVC,FEW,0.00,WeatherDisplay:10.37,2013-03-18 09:49:00,
2013-03-18 04:55:00,31.1,26.8,29.72,NNE,22,1.6,4.6,84,0.00,OVC,FEW,0.00,WeatherDisplay:10.37,2013-03-18 09:55:00,
2013-03-18 05:01:00,30.9,26.7,29.72,SE,135,1.6,5.8,84,0.00,OVC,FEW,0.00,WeatherDisplay:10.37,2013-03-18 10:01:00,
2013-03-18 05:06:00,31.1,26.8,29.72,SE,135,2.2,6.9,84,0.00,OVC,FEW,0.00,WeatherDisplay:10.37,2013-03-18 10:06:00,
2013-03-18 05:12:00,31.1,26.8,29.71,East,90,2.2,5.8,84,0.00,OVC,FEW,0.00,WeatherDisplay:10.37,2013-03-18 10:12:00,
2013-03-18 05:17:00,31.1,26.8,29.71,East,90,0.7,5.8,84,0.00,OVC,FEW,0.00,WeatherDisplay:10.37,2013-03-18 10:17:00,
2013-03-18 05:23:00,30.9,26.7,29.70,SE,135,3.8,6.9,84,0.00,OVC,FEW,0.00,WeatherDisplay:10.37,2013-03-18 10:23:00,
2013-03-18 05:29:00,30.9,26.7,29.69,East,90,3.8,5.8,84,0.00,OVC,FEW,0.00,WeatherDisplay:10.37,2013-03-18 10:29:00,
2013-03-18 05:34:00,30.9,26.7,29.69,NE,45,3.1,6.9,84,0.00,OVC,FEW,0.00,WeatherDisplay:10.37,2013-03-18 10:34:00,
2013-03-18 05:40:00,31.1,26.8,29.69,NE,45,1.6,3.5,84,0.00,OVC,FEW,0.00,WeatherDisplay:10.37,2013-03-18 10:40:00,
2013-03-18 05:45:00,30.9,26.7,29.69,NE,45,2.2,4.6,84,0.00,OVC,FEW,0.00,WeatherDisplay:10.37,2013-03-18 10:45:00,
2013-03-18 05:51:00,30.9,26.7,29.69,East,90,0.7,2.3,84,0.00,OVC,FEW,0.00,WeatherDisplay:10.37,2013-03-18 10:51:00,
2013-03-18 05:57:00,30.7,26.5,29.69,East,90,3.1,6.9,84,0.00,OVC,FEW,0.00,WeatherDisplay:10.37,2013-03-18 10:57:00,
2013-03-18 06:02:00,30.7,26.5,29.69,East,90,0.7,3.5,84,0.00,OVC,FEW,0.00,WeatherDisplay:10.37,2013-03-18 11:02:00,
2013-03-18 06:08:00,30.7,26.5,29.69,East,90,1.6,3.5,84,0.00,OVC,FEW,0.00,WeatherDisplay:10.37,2013-03-18 11:08:00,
2013-03-18 06:13:00,30.7,26.5,29.69,East,90,1.6,4.6,84,0.00,OVC,FEW,0.00,WeatherDisplay:10.37,2013-03-18 11:13:00,
2013-03-18 06:19:00,30.7,26.5,29.68,NE,45,2.2,8.1,84,0.00,OVC,FEW,0.00,WeatherDisplay:10.37,2013-03-18 11:19:00,
2013-03-18 06:25:00,30.7,26.5,29.68,East,90,2.2,4.6,84,0.00,OVC,FEW,0.00,WeatherDisplay:10.37,2013-03-18 11:25:00,
2013-03-18 06:30:00,30.7,26.5,29.68,East,90,1.6,5.8,84,0.00,OVC,FEW,0.00,WeatherDisplay:10.37,2013-03-18 11:30:00,
2013-03-18 06:36:00,30.7,26.5,29.68,NE,45,2.2,4.6,84,0.00,OVC,FEW,0.00,WeatherDisplay:10.37,2013-03-18 11:36:00,
2013-03-18 06:41:00,30.7,26.5,29.68,SE,135,2.2,6.9,84,0.00,OVC,FEW,0.00,WeatherDisplay:10.37,2013-03-18 11:41:00,
2013-03-18 06:47:00,30.6,26.3,29.68,East,90,1.6,6.9,84,0.00,OVC,FEW,0.00,WeatherDisplay:10.37,2013-03-18 11:47:00,
2013-03-18 06:53:00,30.6,26.3,29.69,SSE,158,0.0,2.3,84,0.00,OVC,FEW,0.00,WeatherDisplay:10.37,2013-03-18 11:53:00,
2013-03-18 06:58:00,30.6,26.3,29.69,East,90,1.6,4.6,84,0.00,OVC,FEW,0.00,WeatherDisplay:10.37,2013-03-18 11:58:00,
2013-03-18 07:04:00,30.6,26.3,29.69,East,90,0.0,1.6,84,0.00,OVC,FEW,0.00,WeatherDisplay:10.37,2013-03-18 12:04:00,
2013-03-18 07:09:00,30.6,26.3,29.68,East,90,1.6,5.8,84,0.00,OVC,FEW,0.00,WeatherDisplay:10.37,2013-03-18 12:09:00,
2013-03-18 07:15:00,30.6,26.3,29.68,East,90,2.2,4.6,84,0.00,OVC,FEW,0.00,WeatherDisplay:10.37,2013-03-18 12:15:00,
2013-03-18 07:21:00,30.6,26.3,29.68,SE,135,1.6,4.6,84,0.00,OVC,FEW,0.00,WeatherDisplay:10.37,2013-03-18 12:21:00,
2013-03-18 07:26:00,30.6,26.3,29.68,East,90,0.7,5.8,84,0.00,OVC,FEW,0.00,WeatherDisplay:10.37,2013-03-18 12:26:00,
2013-03-18 07:32:00,30.6,26.3,29.69,North,0,0.0,3.5,84,0.00,OVC,FEW,0.00,WeatherDisplay:10.37,2013-03-18 12:32:00,
2013-03-18 07:37:00,30.6,26.3,29.69,East,90,0.0,1.2,84,0.00,OVC,FEW,0.00,WeatherDisplay:10.37,2013-03-18 12:37:00,
2013-03-18 07:43:00,30.6,26.3,29.68,SE,135,0.0,2.3,84,0.00,OVC,FEW,0.00,WeatherDisplay:10.37,2013-03-18 12:43:00,
2013-03-18 07:49:00,30.6,26.3,29.68,East,90,0.0,2.3,84,0.00,OVC,FEW,0.00,WeatherDisplay:10.37,2013-03-18 12:49:00,
2013-03-18 07:54:00,30.7,26.5,29.68,SE,135,0.7,1.2,84,0.00,OVC,FEW,0.00,WeatherDisplay:10.37,2013-03-18 12:54:00,
2013-03-18 08:00:00,30.6,26.3,29.68,North,0,0.0,3.5,84,0.00,OVC,FEW,0.00,WeatherDisplay:10.37,2013-03-18 13:00:00,
2013-03-18 08:05:00,32.9,28.6,29.68,East,90,1.6,3.5,84,0.00,OVC,FEW,0.00,WeatherDisplay:10.37,2013-03-18 13:05:00,
2013-03-18 08:11:00,30.6,26.3,29.68,East,90,0.0,2.3,84,0.00,OVC,FEW,0.00,WeatherDisplay:10.37,2013-03-18 13:11:00,
2013-03-18 08:17:00,30.7,26.5,29.67,SE,135,0.0,2.3,84,0.00,OVC,FEW,0.00,WeatherDisplay:10.37,2013-03-18 13:17:00,
2013-03-18 08:22:00,30.6,26.3,29.68,SE,135,0.7,2.3,84,0.00,OVC,FEW,0.00,WeatherDisplay:10.37,2013-03-18 13:22:00,
2013-03-18 08:28:00,30.6,26.3,29.68,SE,135,0.0,1.6,84,0.00,OVC,FEW,0.00,WeatherDisplay:10.37,2013-03-18 13:28:00,
2013-03-18 08:33:00,30.7,26.5,29.68,NE,45,0.0,1.2,84,0.00,OVC,FEW,0.00,WeatherDisplay:10.37,2013-03-18 13:33:00,
2013-03-18 08:39:00,30.7,26.5,29.68,NE,45,0.7,1.6,84,0.00,OVC,FEW,0.00,WeatherDisplay:10.37,2013-03-18 13:39:00,
2013-03-18 08:45:00,30.7,26.5,29.68,South,180,0.7,2.3,84,0.00,OVC,FEW,0.00,WeatherDisplay:10.37,2013-03-18 13:45:00,
2013-03-18 08:50:00,30.9,26.7,29.68,East,90,0.0,1.2,84,0.00,OVC,FEW,0.00,WeatherDisplay:10.37,2013-03-18 13:50:00,
2013-03-18 08:57:00,30.9,26.7,29.67,East,90,0.0,2.3,84,0.00,OVC,FEW,0.00,WeatherDisplay:10.37,2013-03-18 13:57:00,
2013-03-18 09:02:00,31.1,26.8,29.67,East,90,0.7,2.3,84,0.00,OVC,FEW,0.00,WeatherDisplay:10.37,2013-03-18 14:02:00,
2013-03-18 09:08:00,31.3,27.0,29.67,SE,135,0.0,2.3,84,0.00,OVC,FEW,0.00,WeatherDisplay:10.37,2013-03-18 14:08:00,
2013-03-18 09:13:00,31.5,27.2,29.67,SE,135,0.7,2.3,84,0.00,OVC,FEW,0.00,WeatherDisplay:10.37,2013-03-18 14:13:00,
2013-03-18 09:19:00,31.6,27.4,29.66,SE,135,0.0,1.2,84,0.00,OVC,FEW,0.00,WeatherDisplay:10.37,2013-03-18 14:19:00,
2013-03-18 09:25:00,31.8,27.5,29.66,East,90,0.0,1.2,84,0.00,OVC,FEW,0.00,WeatherDisplay:10.37,2013-03-18 14:25:00,
2013-03-18 09:30:00,32.0,27.7,29.67,South,180,0.0,1.2,84,0.00,OVC,FEW,0.00,WeatherDisplay:10.37,2013-03-18 14:30:00,
2013-03-18 09:37:00,32.4,28.1,29.66,East,90,0.0,0.7,84,0.00,OVC,FEW,0.00,WeatherDisplay:10.37,2013-03-18 14:37:00,
2013-03-18 09:42:00,32.4,28.1,29.65,South,180,0.0,0.0,84,0.00,OVC,FEW,0.00,WeatherDisplay:10.37,2013-03-18 14:42:00,
2013-03-18 09:48:00,32.5,28.2,29.66,East,90,0.0,0.0,84,0.00,OVC,FEW,0.00,WeatherDisplay:10.37,2013-03-18 14:48:00,
2013-03-18 09:53:00,32.4,28.1,29.65,SE,135,0.0,0.0,84,0.00,OVC,FEW,0.00,WeatherDisplay:10.37,2013-03-18 14:53:00,
2013-03-18 09:59:00,32.5,28.2,29.66,SE,135,0.0,0.0,84,0.00,OVC,FEW,0.00,WeatherDisplay:10.37,2013-03-18 14:59:00,
2013-03-18 10:05:00,32.9,28.6,29.66,SW,225,0.0,0.0,84,0.00,OVC,FEW,0.00,WeatherDisplay:10.37,2013-03-18 15:05:00,
2013-03-18 10:10:00,33.1,28.8,29.66,South,180,0.0,0.0,84,0.00,OVC,FEW,0.00,WeatherDisplay:10.37,2013-03-18 15:10:00,
2013-03-18 10:17:00,33.4,29.1,29.66,South,180,0.0,0.0,84,0.00,OVC,FEW,0.00,WeatherDisplay:10.37,2013-03-18 15:17:00,
2013-03-18 10:22:00,33.6,29.3,29.66,East,90,0.0,0.0,84,0.00,OVC,FEW,0.00,WeatherDisplay:10.37,2013-03-18 15:22:00,
2013-03-18 10:28:00,33.6,29.3,29.65,South,180,0.0,0.0,84,0.00,OVC,FEW,0.00,WeatherDisplay:10.37,2013-03-18 15:28:00,
2013-03-18 10:33:00,34.0,29.7,29.65,SW,225,0.0,0.0,84,0.00,OVC,FEW,0.00,WeatherDisplay:10.37,2013-03-18 15:33:00,
2013-03-18 10:39:00,34.2,29.8,29.65,SW,225,0.0,0.0,84,0.00,OVC,FEW,0.00,WeatherDisplay:10.37,2013-03-18 15:39:00,
2013-03-18 10:45:00,34.5,30.2,29.65,South,180,0.0,1.2,84,0.00,OVC,FEW,0.00,WeatherDisplay:10.37,2013-03-18 15:45:00,
2013-03-18 10:50:00,34.5,30.2,29.65,SW,225,0.0,1.2,84,0.00,OVC,FEW,0.00,WeatherDisplay:10.37,2013-03-18 15:50:00,
2013-03-18 10:57:00,34.0,29.7,29.65,South,180,0.7,4.6,84,0.00,OVC,FEW,0.00,WeatherDisplay:10.37,2013-03-18 15:57:00,
2013-03-18 11:02:00,33.8,29.5,29.65,South,180,0.0,1.2,84,0.00,OVC,FEW,0.00,WeatherDisplay:10.37,2013-03-18 16:02:00,
2013-03-18 11:08:00,33.6,29.3,29.65,South,180,0.0,2.3,84,0.00,OVC,FEW,0.00,WeatherDisplay:10.37,2013-03-18 16:08:00,
2013-03-18 11:13:00,34.0,29.7,29.65,South,180,0.0,2.3,84,0.00,OVC,FEW,0.00,WeatherDisplay:10.37,2013-03-18 16:13:00,
2013-03-18 11:19:00,34.3,30.0,29.65,SW,225,0.0,1.2,84,0.00,OVC,FEW,0.00,WeatherDisplay:10.37,2013-03-18 16:19:00,
2013-03-18 11:25:00,34.7,30.4,29.65,South,180,0.0,1.2,84,0.00,OVC,FEW,0.00,WeatherDisplay:10.37,2013-03-18 16:25:00,
2013-03-18 11:30:00,34.5,30.2,29.65,SW,225,0.7,3.5,84,0.00,OVC,FEW,0.00,WeatherDisplay:10.37,2013-03-18 16:30:00,
2013-03-18 11:37:00,34.5,30.2,29.65,SW,225,0.7,3.5,84,0.00,OVC,FEW,0.00,WeatherDisplay:10.37,2013-03-18 16:37:00,
2013-03-18 11:42:00,34.5,30.2,29.64,SE,135,0.7,3.5,84,0.00,OVC,FEW,0.00,WeatherDisplay:10.37,2013-03-18 16:42:00,
2013-03-18 11:48:00,34.3,30.0,29.64,South,180,1.6,3.5,84,0.00,OVC,FEW,0.00,WeatherDisplay:10.37,2013-03-18 16:48:00,
2013-03-18 11:53:00,34.2,29.8,29.64,South,180,0.0,3.5,84,0.00,OVC,FEW,0.00,WeatherDisplay:10.37,2013-03-18 16:53:00,
2013-03-18 11:59:00,34.0,29.7,29.63,South,180,2.2,4.6,84,0.00,OVC,FEW,0.00,WeatherDisplay:10.37,2013-03-18 16:59:00,
2013-03-18 12:05:00,34.2,29.8,29.64,SW,225,0.7,3.8,84,0.00,OVC,FEW,0.00,WeatherDisplay:10.37,2013-03-18 17:05:00,
2013-03-18 12:10:00,34.3,30.0,29.63,SE,135,0.0,5.8,84,0.00,OVC,FEW,0.00,WeatherDisplay:10.37,2013-03-18 17:10:00,
2013-03-18 12:17:00,35.1,30.7,29.63,WSW,248,0.7,3.5,84,0.00,OVC,FEW,0.00,WeatherDisplay:10.37,2013-03-18 17:17:00,
2013-03-18 12:22:00,35.4,31.1,29.62,South,180,1.6,3.8,84,0.01,RA,FEW,0.01,WeatherDisplay:10.37,2013-03-18 17:22:00,
2013-03-18 12:28:00,34.9,30.5,29.63,West,270,2.2,6.9,84,0.02,RA,FEW,0.02,WeatherDisplay:10.37,2013-03-18 17:28:00,
2013-03-18 12:33:00,34.3,30.0,29.63,SSW,202,0.7,5.8,84,0.04,RA,FEW,0.04,WeatherDisplay:10.37,2013-03-18 17:33:00,
2013-03-18 12:39:00,34.5,30.2,29.62,South,180,0.7,5.8,84,0.04,RA,FEW,0.04,WeatherDisplay:10.37,2013-03-18 17:39:00,
2013-03-18 12:45:00,34.7,30.4,29.62,NW,315,0.7,2.2,84,0.05,RA,FEW,0.05,WeatherDisplay:10.37,2013-03-18 17:45:00,
2013-03-18 12:50:00,34.9,30.5,29.63,SW,225,0.7,3.5,84,0.06,RA,FEW,0.06,WeatherDisplay:10.37,2013-03-18 17:50:00,
2013-03-18 12:56:00,35.1,30.7,29.62,SW,225,2.2,5.8,84,0.06,RA,FEW,0.06,WeatherDisplay:10.37,2013-03-18 17:56:00,
2013-03-18 13:01:00,35.2,30.9,29.62,South,180,2.2,6.0,84,0.07,RA,FEW,0.07,WeatherDisplay:10.37,2013-03-18 18:01:00,
2013-03-18 13:07:00,35.4,31.1,29.62,SSE,158,2.2,5.8,84,0.07,RA,FEW,0.07,WeatherDisplay:10.37,2013-03-18 18:07:00,
2013-03-18 13:13:00,35.8,31.4,29.62,SW,225,0.7,5.8,84,0.08,RA,FEW,0.08,WeatherDisplay:10.37,2013-03-18 18:13:00,
2013-03-18 13:18:00,35.6,31.2,29.62,SW,225,1.6,8.1,84,0.08,RA,FEW,0.08,WeatherDisplay:10.37,2013-03-18 18:18:00,
2013-03-18 13:24:00,35.6,31.2,29.62,West,270,3.8,7.6,84,0.07,OVC,FEW,0.08,WeatherDisplay:10.37,2013-03-18 18:24:00,
2013-03-18 13:29:00,35.4,31.1,29.62,West,270,2.2,5.8,84,0.06,OVC,FEW,0.08,WeatherDisplay:10.37,2013-03-18 18:29:00,
2013-03-18 13:35:00,35.2,30.9,29.62,SW,225,3.1,10.4,84,0.06,RA,FEW,0.09,WeatherDisplay:10.37,2013-03-18 18:35:00,
2013-03-18 13:41:00,35.6,31.2,29.62,NW,315,3.1,5.8,84,0.06,RA,FEW,0.09,WeatherDisplay:10.37,2013-03-18 18:41:00,
2013-03-18 13:46:00,35.8,31.4,29.62,West,270,3.1,6.9,84,0.05,OVC,FEW,0.09,WeatherDisplay:10.37,2013-03-18 18:46:00,
2013-03-18 13:52:00,35.8,31.4,29.62,SW,225,3.8,8.1,84,0.04,OVC,FEW,0.09,WeatherDisplay:10.37,2013-03-18 18:52:00,
2013-03-18 13:57:00,35.8,31.4,29.63,NW,315,3.1,8.1,84,0.04,OVC,FEW,0.09,WeatherDisplay:10.37,2013-03-18 18:57:00,
2013-03-18 14:03:00,35.8,31.4,29.62,NW,315,4.5,9.8,84,0.02,OVC,FEW,0.09,WeatherDisplay:10.37,2013-03-18 19:03:00,
2013-03-18 14:09:00,36.0,31.6,29.62,SW,225,3.8,6.9,84,0.02,OVC,FEW,0.09,WeatherDisplay:10.37,2013-03-18 19:09:00,